NTAANCRG

Guest
Details From NTAA - Faaa
To NCRG - Rarotonga Intl
Flight Number -
Tags decoded
Created
Modified
Stats Distance 618 nm / 1,144 km
Max Altitude 0 ft / 0 m
Waypoints 3
Social Downloads 2
Likes 0
Share VATSIM

Download

Looking for another format? Having issues loading an existing format? Contact us
Advertisement - Login to hide

Notes

Requested: NTAA MAITO G594 HITI NCRG Unmatched points: G594 HITI

Route

NTAA MAITO NCRG

ID Type Via Altitude Latitude Longitude Leg Dist Tot Dist Heading (true) Name
O NTAA APT - 0 ft / 0 m -17.55377˚ -149.60726˚ - 0 nm - Faaa
MAITO FIX - 0 ft / 0 m -18.30083˚ -151.54861˚ 119 nm 119 nm 248° / 248° -
O NCRG APT - 0 ft / 0 m -21.20274˚ -159.80556˚ 498 nm 617 nm 248° / 251° Rarotonga Intl

Altitude Profile

Advertisement - Login to hide

Weather


0- 5 10 15 20 25 30 35+ Temperature / ° C

Clouds and Precipitation
Forecast for 2017-12-11 06:00 UTC. Updated an hour ago

Ground ~20,000 ft ~40,000 ft Winds

NTAA

Details ICAO NTAA (PPT)
Name Faaa
Region French Polynesia
Timezone Pacific/Tahiti (UTC-10.0)
Stats Elevation 5 ft / 2 m (AMSL)
Location -17.553765° -149.607255°
Runways 1
Magnetic Variation 12.875° E

METAR

NTAA 110400Z 06009KT 9999 FEW023 BKN300 28/23 Q1009 NOSIG

Decode

TAF

TAF NTAA 102300Z 1100/1206 05012KT 9999 FEW023 SCT050 BECMG 1103/1105 VRB02KT BECMG 1119/1120 05012KT BECMG 1203/1205 VRB02KT

Decode

Departure Runways

ID Width Length Bearing (true) Bearing (mag) Surface Threshold Offset Overrun Length
04 148 ft / 45 m 11,323 ft / 3,451 m 54.04° 41.16° Asphalt 1,099 ft / 335 m 0 ft / 0 m
22 148 ft / 45 m 11,323 ft / 3,451 m 234.03° 221.15° Asphalt 479 ft / 146 m 0 ft / 0 m

NCRG

Details ICAO NCRG (RAR)
Name Rarotonga Intl
Region Cook Islands
Timezone Pacific/Rarotonga (UTC-10.0)
Stats Elevation 19 ft / 6 m (AMSL)
Location -21.202739° -159.805555°
Runways 1
Magnetic Variation 13.933° E

METAR

NCRG 110400Z 36007KT 9999 -SHRA SCT008 BKN045 BKN100 25/23 Q1007 RMK SPECI CONDEX CEASED

Decode

TAF

TAF NCRG 102301Z 1100/1124 04006KT 9999 -SHRA FEW008 SCT016 BKN080 TEMPO 1100/1112 5000 TSRA BKN010 FEW014CB

Decode

Destination Runways

ID Width Length Bearing (true) Bearing (mag) Surface Threshold Offset Overrun Length
08 150 ft / 46 m 7,629 ft / 2,325 m 89.99° 76.06° Concrete 400 ft / 122 m 100 ft / 30 m
26 150 ft / 46 m 7,629 ft / 2,325 m 269.98° 256.05° Concrete 0 ft / 0 m 0 ft / 0 m

Approach Navaids

Runway Type Ident Frequency Range Bearing (true) Bearing (mag) Slope Elevation
08 Localiser INO 109.90 MHz 18 nm / 33 km 89.79° 75.86° - 19 ft / 6 m (AMSL)
08 Glidescope INO 109.90 MHz 10 nm / 19 km 89.98° 76.05° 3.00° 19 ft / 6 m (AMSL)
08 DME INO 109.90 MHz 18 nm / 33 km - - - 19 ft / 6 m (AMSL)
26 Localiser IAV 110.30 MHz 18 nm / 33 km 270.19° 256.26° - 19 ft / 6 m (AMSL)
26 Glidescope IAV 110.30 MHz 10 nm / 19 km 269.98° 256.05° 3.00° 19 ft / 6 m (AMSL)
26 DME IAV 110.30 MHz 18 nm / 33 km - - - 19 ft / 6 m (AMSL)

Popular Alternatives